Zurück zum Katalog

STARLINK-37054

AktivKommunikationVLEO
NORAD 68082·PAYLOAD·🇺🇸 United States

Gestartet Mar 4, 2026 von Vandenberg Space Force Base

Loading…

Nächste Überflüge (nächste 24 Stunden)

TLE

AktuellSource: CelesTrak SupGP

Epoche: Sep 14, 2026, 23:28 UTC

1 68082C 26042P   26257.97826389 -.00012444  00000+0 -36765-3 0  2575
2 68082  53.1607  15.4169 0001260  74.1841 276.2325 15.34397554    12

Verfolge STARLINK-37054 in Echtzeit mit AllMySat

Download on the App Store